Flag Weather past 2 weeks in Stockport, England, United Kingdom

Now
50 °F

Passing clouds.


Feels Like: 46 °F
Forecast: N/A
Wind: 10 mph from East

Location: Manchester Airport

Current Time: Nov 28, 2014 at 8:45:17 PM

Latest Report: Nov 28, 2014 at 7:50 PM


Visibility: N/A

Pressure: 29.77 "Hg

Humidity: 88%

Dew point: 46 °F

Location of StockportLocation

Historic Weather in Stockport — Graph

°F

Stockport temperature yesterday

Maximum temperature yesterday: 46 °F (at 10:50 AM)
Minimum temperature yesterday: 39 °F (at 8:50 PM)
Average temperature yesterday: 44 °F

Past Weeks' High & Low Weather Summary

 TemperatureHumidityPressure
High57 °F (Nov 22, 12:50 PM)100% (Nov 14, 9:50 AM)30.33 "Hg (Nov 14, 9:50 AM)
Low32 °F (Nov 25, 6:20 AM)72% (Nov 14, 2:20 PM)29.33 "Hg (Nov 14, 5:50 AM)
Average46 °F93%29.86 "Hg
* Reported Nov 13 7:20 PM — Nov 28 7:50 PM, Stockport, Weather by CustomWeather, © 2014

Note: Actual official high and low records may vary slightly from our data, if they occured in-between our weather recording intervals... More about our weather records

Advertising

Stockport weather history for previous 24 hours

 ConditionsComfort  
Time TempWeatherWind HumidityBarometerVisibility
7:50 PM
Nov 28
50 °FPassing clouds.10 mph88%29.77 "HgN/A
7:20 PM50 °FPassing clouds.14 mph94%29.77 "HgN/A
6:50 PM50 °FPassing clouds.13 mph94%29.74 "HgN/A
6:20 PM50 °FPassing clouds.13 mph94%29.74 "HgN/A
5:50 PM52 °FPassing clouds.10 mph88%29.74 "HgN/A
5:20 PM52 °FPassing clouds.12 mph88%29.71 "Hg6 mi
4:50 PM52 °FPassing clouds.10 mph94%29.71 "Hg6 mi
4:20 PM52 °FPartly cloudy.14 mph94%29.71 "Hg5 mi
3:50 PM52 °FPartly sunny.10 mph94%29.71 "Hg6 mi
3:20 PM52 °FBroken clouds.8 mph88%29.68 "HgN/A
2:50 PM52 °FScattered clouds.12 mph88%29.68 "HgN/A
2:20 PM52 °FBroken clouds.8 mph88%29.68 "HgN/A
1:50 PM52 °FBroken clouds.9 mph88%29.68 "HgN/A
1:20 PM52 °FBroken clouds.8 mph88%29.68 "HgN/A
12:50 PM52 °FBroken clouds.8 mph88%29.68 "HgN/A
12:20 PM52 °FBroken clouds.9 mph88%29.68 "HgN/A
11:50 AM52 °FMore clouds than sun.10 mph94%29.68 "Hg4 mi
11:20 AM50 °FBroken clouds.9 mph100%29.68 "Hg5 mi
10:50 AM50 °FFog.8 mph100%29.68 "Hg3 mi
10:20 AM50 °FBroken clouds.10 mph94%29.68 "Hg4 mi
9:50 AM50 °FBroken clouds.10 mph94%29.68 "Hg4 mi
9:20 AM50 °FPartly sunny.10 mph94%29.65 "Hg4 mi
8:50 AM50 °FBroken clouds.7 mph94%29.65 "Hg4 mi
8:20 AM48 °FBroken clouds.6 mph100%29.65 "Hg4 mi
7:50 AM48 °FPassing clouds.7 mph100%29.65 "Hg4 mi
7:20 AM48 °FPassing clouds.6 mph100%29.65 "Hg4 mi
6:50 AM48 °FPartly cloudy.5 mph100%29.62 "Hg4 mi
6:20 AM48 °FPassing clouds.7 mph100%29.62 "Hg4 mi
5:50 AM48 °FPartly cloudy.6 mph94%29.62 "Hg6 mi
5:20 AM46 °FPassing clouds.7 mph100%29.62 "HgN/A
4:50 AM45 °FPartly cloudy.3 mph100%29.62 "HgN/A
4:20 AM46 °FPassing clouds.7 mph93%29.62 "HgN/A
3:20 AM45 °FPassing clouds.6 mph100%29.62 "HgN/A
2:50 AM46 °FPassing clouds.10 mph100%29.62 "HgN/A
2:20 AM46 °FPassing clouds.8 mph100%29.62 "Hg4 mi
1:50 AM46 °FPassing clouds.9 mph100%29.62 "Hg5 mi
1:20 AM45 °FPassing clouds.9 mph100%29.59 "Hg4 mi
12:50 AM46 °FClear.13 mph93%29.59 "Hg10 mi
12:20 AM46 °FPassing clouds.7 mph87%29.59 "HgN/A
11:50 PM
Nov 27
45 °FPassing clouds.10 mph100%29.59 "HgN/A
11:20 PM43 °FPassing clouds.9 mph100%29.59 "HgN/A
10:50 PM43 °FLight rain. Passing clouds.7 mph100%29.59 "Hg5 mi
10:20 PM43 °FClear.8 mph100%29.59 "Hg10 mi
9:50 PM39 °FClear.8 mph100%29.59 "Hg5 mi
8:50 PM39 °FClear.3 mph100%29.59 "Hg5 mi
8:20 PM41 °FClear.5 mph100%29.59 "Hg5 mi
Weather by CustomWeather, © 2014

See weather overviewHow to use our weather pages